• en France
  • Liste des pays
  • À 7 jours
  • Température de l'eau
  • Carte satellitaire
  • Carte météo
  • Widgets météo
  • user-avatar
    Se connecter

    Météo par heure à Brecon

    Ce jour, 22 Novembre, Mercredi

    Heure Température Précipitation Vent Pression Humidité
    00:00 +12°C° 0 mm 8 m/s 736 mmHg 91%
    01:00 +11°C° 0,1 mm 8 m/s 735 mmHg 90%
    02:00 +11°C° 0,1 mm 9 m/s 735 mmHg 89%
    03:00 +11°C° 0,1 mm 9 m/s 734 mmHg 88%
    04:00 +11°C° 0 mm 9 m/s 734 mmHg 88%
    05:00 +12°C° 0 mm 10 m/s 733 mmHg 88%
    06:00 +12°C° 0 mm 8 m/s 732 mmHg 87%
    07:00 +12°C° 0,1 mm 9 m/s 732 mmHg 87%
    08:00 +12°C° 0,1 mm 10 m/s 731 mmHg 86%
    09:00 +12°C° 0,1 mm 11 m/s 731 mmHg 86%
    10:00 +12°C° 0,1 mm 11 m/s 730 mmHg 85%
    11:00 +12°C° 0,1 mm 12 m/s 729 mmHg 85%
    12:00 +12°C° 0 mm 10 m/s 729 mmHg 87%
    13:00 +12°C° 0,3 mm 11 m/s 728 mmHg 86%
    14:00 +12°C° 0,3 mm 12 m/s 727 mmHg 85%
    15:00 +12°C° 0,3 mm 13 m/s 726 mmHg 83%
    16:00 +12°C° 0,9 mm 13 m/s 725 mmHg 84%
    17:00 +12°C° 0,9 mm 13 m/s 725 mmHg 85%
    18:00 +12°C° 0,9 mm 13 m/s 724 mmHg 86%
    19:00 +12°C° 0,4 mm 12 m/s 723 mmHg 86%
    20:00 +12°C° 0,4 mm 11 m/s 723 mmHg 86%
    21:00 +12°C° 0,4 mm 11 m/s 722 mmHg 87%
    22:00 +12°C° 0,9 mm 10 m/s 722 mmHg 87%
    23:00 +11°C° 0,9 mm 10 m/s 722 mmHg 88%

    Demain, 23 Novembre, Jeudi

    Heure Température Précipitation Vent Pression Humidité
    00:00 +11°C° 0,9 mm 10 m/s 722 mmHg 89%
    01:00 +10°C° 0,5 mm 9 m/s 722 mmHg 89%
    02:00 +10°C° 0,5 mm 8 m/s 723 mmHg 89%
    03:00 +9°C° 0,5 mm 7 m/s 724 mmHg 89%
    04:00 +8°C° 0 mm 7 m/s 725 mmHg 86%
    05:00 +6°C° 0 mm 8 m/s 726 mmHg 83%
    06:00 +4°C° 0 mm 8 m/s 727 mmHg 80%
    07:00 +3°C° 0 mm 9 m/s 728 mmHg 77%
    08:00 +3°C° 0 mm 9 m/s 729 mmHg 75%
    09:00 +3°C° 0 mm 10 m/s 730 mmHg 72%
    10:00 +5°C° 0 mm 10 m/s 731 mmHg 70%
    11:00 +6°C° 0 mm 10 m/s 732 mmHg 69%
    12:00 +7°C° 0 mm 11 m/s 733 mmHg 67%
    13:00 +6°C° 0 mm 9 m/s 734 mmHg 68%
    14:00 +6°C° 0 mm 7 m/s 735 mmHg 69%
    15:00 +7°C° 0 mm 6 m/s 736 mmHg 70%
    16:00 +6°C° 0,1 mm 5 m/s 736 mmHg 71%
    17:00 +6°C° 0,1 mm 4 m/s 737 mmHg 72%
    18:00 +5°C° 0,1 mm 4 m/s 737 mmHg 74%
    19:00 +5°C° 0,2 mm 3 m/s 738 mmHg 74%
    20:00 +6°C° 0,2 mm 2 m/s 738 mmHg 74%
    21:00 +6°C° 0,2 mm 2 m/s 738 mmHg 73%
    22:00 +5°C° 0,2 mm 2 m/s 738 mmHg 73%
    23:00 +5°C° 0,2 mm 2 m/s 738 mmHg 72%

    Après-demain, 24 Novembre, Vendredi

    Heure Température Précipitation Vent Pression Humidité
    00:00 +6°C° 0,2 mm 1 m/s 738 mmHg 71%
    01:00 +5°C° 0,1 mm 2 m/s 738 mmHg 71%
    02:00 +5°C° 0,1 mm 2 m/s 738 mmHg 71%
    03:00 +5°C° 0,1 mm 2 m/s 739 mmHg 71%
    04:00 +4°C° 0 mm 2 m/s 739 mmHg 71%
    05:00 +4°C° 0 mm 2 m/s 740 mmHg 72%
    06:00 +3°C° 0 mm 3 m/s 740 mmHg 73%
    07:00 +3°C° 0 mm 3 m/s 741 mmHg 73%
    08:00 +3°C° 0 mm 3 m/s 742 mmHg 74%
    09:00 +3°C° 0 mm 3 m/s 742 mmHg 75%
    10:00 +4°C° 0 mm 3 m/s 743 mmHg 71%
    11:00 +5°C° 0 mm 3 m/s 743 mmHg 67%
    12:00 +5°C° 0 mm 4 m/s 744 mmHg 64%
    13:00 +5°C° 0 mm 3 m/s 744 mmHg 66%
    14:00 +5°C° 0 mm 3 m/s 743 mmHg 68%
    15:00 +5°C° 0 mm 3 m/s 743 mmHg 70%
    16:00 +4°C° 0,1 mm 3 m/s 744 mmHg 72%
    17:00 +3°C° 0,1 mm 3 m/s 744 mmHg 75%
    18:00 +2°C° 0,1 mm 3 m/s 744 mmHg 77%
    19:00 +2°C° 0,1 mm 3 m/s 744 mmHg 77%
    20:00 +2°C° 0,1 mm 3 m/s 744 mmHg 76%
    21:00 +2°C° 0,1 mm 3 m/s 745 mmHg 76%
    22:00 +1°C° 0 mm 3 m/s 745 mmHg 75%
    23:00 0°C° 0 mm 4 m/s 745 mmHg 74%

    25 Novembre, Samedi

    Heure Température Précipitation Vent Pression Humidité
    00:00 0°C° 0 mm 4 m/s 745 mmHg 73%
    01:00 -1°C° 0 mm 4 m/s 745 mmHg 73%
    02:00 -1°C° 0 mm 5 m/s 745 mmHg 73%
    03:00 -1°C° 0 mm 5 m/s 745 mmHg 72%
    04:00 -1°C° 0 mm 5 m/s 745 mmHg 72%
    05:00 -1°C° 0 mm 5 m/s 746 mmHg 72%
    06:00 -2°C° 0 mm 6 m/s 746 mmHg 72%
    07:00 -1°C° 0 mm 6 m/s 746 mmHg 71%
    08:00 -1°C° 0 mm 6 m/s 747 mmHg 70%
    09:00 -1°C° 0 mm 6 m/s 747 mmHg 70%
    10:00 0°C° 0,1 mm 7 m/s 747 mmHg 67%
    11:00 +1°C° 0,1 mm 8 m/s 748 mmHg 64%
    12:00 +2°C° 0,1 mm 8 m/s 748 mmHg 60%
    13:00 +2°C° 0,1 mm 8 m/s 748 mmHg 62%
    14:00 +2°C° 0,1 mm 7 m/s 748 mmHg 64%
    15:00 +2°C° 0,1 mm 7 m/s 748 mmHg 66%
    16:00 +1°C° 0 mm 6 m/s 748 mmHg 69%
    17:00 +1°C° 0 mm 6 m/s 749 mmHg 72%
    18:00 -1°C° 0 mm 6 m/s 749 mmHg 74%
    19:00 -1°C° 0 mm 6 m/s 749 mmHg 75%
    20:00 -1°C° 0 mm 6 m/s 749 mmHg 75%
    21:00 -1°C° 0 mm 6 m/s 750 mmHg 76%
    22:00 -1°C° 0 mm 6 m/s 750 mmHg 76%
    23:00 -1°C° 0 mm 6 m/s 750 mmHg 77%

    26 Novembre, Dimanche

    Heure Température Précipitation Vent Pression Humidité
    00:00 -1°C° 0 mm 6 m/s 750 mmHg 77%
    01:00 -1°C° 0 mm 6 m/s 750 mmHg 79%
    02:00 0°C° 0 mm 7 m/s 751 mmHg 80%
    03:00 0°C° 0 mm 7 m/s 751 mmHg 81%
    04:00 0°C° 0 mm 7 m/s 751 mmHg 82%
    05:00 0°C° 0 mm 7 m/s 751 mmHg 83%
    06:00 +2°C° 0 mm 6 m/s 751 mmHg 83%
    07:00 +2°C° 0 mm 6 m/s 752 mmHg 83%
    08:00 +2°C° 0 mm 6 m/s 752 mmHg 82%
    09:00 +2°C° 0 mm 6 m/s 753 mmHg 82%
    10:00 +3°C° 0,1 mm 6 m/s 753 mmHg 79%
    11:00 +4°C° 0,1 mm 6 m/s 754 mmHg 76%
    12:00 +4°C° 0,1 mm 7 m/s 754 mmHg 73%
    13:00 +4°C° 0 mm 6 m/s 754 mmHg 74%
    14:00 +4°C° 0 mm 6 m/s 754 mmHg 75%
    15:00 +4°C° 0 mm 6 m/s 754 mmHg 76%
    16:00 +3°C° 0 mm 6 m/s 754 mmHg 77%
    17:00 +2°C° 0 mm 6 m/s 755 mmHg 79%
    18:00 +2°C° 0 mm 5 m/s 755 mmHg 80%
    19:00 +2°C° 0 mm 5 m/s 755 mmHg 81%
    20:00 +1°C° 0 mm 5 m/s 755 mmHg 83%
    21:00 +1°C° 0 mm 4 m/s 756 mmHg 84%
    22:00 +1°C° 0 mm 5 m/s 756 mmHg 85%
    23:00 +2°C° 0 mm 5 m/s 756 mmHg 85%

    27 Novembre, Lundi

    Heure Température Précipitation Vent Pression Humidité
    00:00 +2°C° 0 mm 5 m/s 756 mmHg 86%
    01:00 +2°C° 0 mm 5 m/s 755 mmHg 86%
    02:00 +2°C° 0 mm 6 m/s 755 mmHg 86%
    03:00 +3°C° 0 mm 6 m/s 754 mmHg 87%
    04:00 +3°C° 0,1 mm 7 m/s 754 mmHg 86%
    05:00 +4°C° 0,1 mm 8 m/s 754 mmHg 85%
    06:00 +5°C° 0,1 mm 9 m/s 753 mmHg 85%
    07:00 +5°C° 0,4 mm 9 m/s 753 mmHg 86%
    08:00 +6°C° 0,4 mm 9 m/s 753 mmHg 88%
    09:00 +7°C° 0,4 mm 9 m/s 752 mmHg 89%
    10:00 +7°C° 0,4 mm 9 m/s 752 mmHg 86%
    11:00 +7°C° 0,4 mm 8 m/s 752 mmHg 83%
    12:00 +7°C° 0,4 mm 8 m/s 752 mmHg 80%
    13:00 +6°C° 0 mm 7 m/s 752 mmHg 80%
    14:00 +6°C° 0 mm 7 m/s 752 mmHg 80%
    15:00 +5°C° 0 mm 6 m/s 751 mmHg 79%
    16:00 +5°C° 0 mm 6 m/s 751 mmHg 81%
    17:00 +4°C° 0 mm 6 m/s 752 mmHg 83%
    18:00 +5°C° 0 mm 5 m/s 752 mmHg 85%
    19:00 +5°C° 0 mm 5 m/s 752 mmHg 85%
    20:00 +5°C° 0 mm 5 m/s 752 mmHg 85%
    21:00 +5°C° 0 mm 5 m/s 751 mmHg 86%
    22:00 +5°C° 0 mm 5 m/s 751 mmHg 86%
    23:00 +5°C° 0 mm 5 m/s 751 mmHg 87%
    Voir plus